Location: Castrojimeno
(41.3966°N, 3.8473°W)
Time: 21:36:35
(UTC+00:00)

CZ-4B R/B - Pass Details

Date: 15 May 2026
Orbit: 807 x 881 km, 98.9° (Epoch: 10 June)

Event Time Altitude Azimuth Distance (km) Brightness Sun altitude
Exits shadow 20:05:21 - 144° (SE) 2,869 5.4 -7.0°
Reaches altitude 10° 20:06:15 10° 142° (SE) 2,529 5.1 -7.1°
Maximum altitude 20:11:37 47° 70° (ENE) 1,141 3.7 -8.0°
Drops below altitude 10° 20:16:58 10° 358° (N) 2,519 6.2 -8.8°
Sets 20:19:25 0° 353° (N) 3,451 7.1 -9.2°
